Content
SEND FEEDBACK

Daily
Averages
Monthly
Summary
United States of America

HENDERSON, TEXAS


Home > North America > United States > Texas
Elevation: 440 feet     Latitude: 32 09N     Longitude: 094 51W

WEATHER
 
SELECT A DAY
Number of Records: 138,547;   Date Range: 10/21/08 - 8/26/14
 
SHARE

PRINT THIS DATA

[ ← Previous Day ]
WEATHER ALMANAC - FEBRUARY 13, 2013
[ Next Day → ]
[ °C ]   °F
Weather ElementAverageHighLow
Temperature41.7 °F48.2 °F (3:35 pm)32 °F (11:35 pm)
Dewpoint34.5 °F39.2 °F (12:35 am)32 °F (9:35 pm)
Humidity76.5 %100 % (11:35 pm)58 % (3:35 pm)
Barometer30.07 in30.13 in (9:15 am)29.94 in (12:35 am)
Wind Speed4.3 mph11.5 mph (2:35 am)
Wind Gust20.7 mph (2:35 am)
Weather ElementAverage
Visibility10 mi
Wind DirectionSSW (215.2 °)

Weather ElementTotal
Precipitation---
Heating Degree Days24.9 (Base 65)
Averaged from 71 records on February 13, 2013
WEATHER CONDITIONS BREAKOUT
WIND DIRECTION BREAKOUT
WEATHER BY HOUR - FEBRUARY 13, 2013
[ °C ]   °F
Local TimeTemperatureDewpointHumidityBarometerVisibilityWind DirectionWind SpeedGust SpeedPrecipitationEventsConditions
12:35 AM44.6 °F39.2 °F81 %29.94 in10.0 miNNW (330°)5.8 mphScattered Clouds
12:55 AM44.6 °F37.4 °F76 %29.95 in10.0 miNW (320°)4.6 mphScattered Clouds
1:15 AM44.6 °F39.2 °F81 %29.97 in10.0 miNW (310°)5.8 mphMostly Cloudy
1:35 AM44.6 °F39.2 °F81 %29.97 in10.0 miNW (310°)5.8 mphOvercast
1:55 AM44.6 °F39.2 °F81 %29.97 in10.0 miNW (310°)8.1 mphOvercast
2:15 AM44.6 °F37.4 °F76 %29.98 in10.0 miWNW (300°)8.1 mphOvercast
2:35 AM44.6 °F37.4 °F76 %29.98 in10.0 miNW (320°)11.5 mph20.7 mphOvercast
2:55 AM44.6 °F35.6 °F71 %29.99 in10.0 miWNW (300°)8.1 mph16.1 mphOvercast
3:15 AM44.6 °F37.4 °F76 %30.00 in10.0 miWNW (300°)8.1 mphOvercast
3:35 AM44.6 °F35.6 °F71 %30.00 in10.0 miNW (320°)9.2 mph18.4 mphOvercast
3:55 AM42.8 °F35.6 °F76 %30.01 in10.0 miNW (320°)6.9 mph17.3 mphScattered Clouds
4:15 AM42.8 °F35.6 °F76 %30.03 in10.0 miNNW (330°)9.2 mph17.3 mphMostly Cloudy
4:35 AM42.8 °F35.6 °F76 %30.04 in10.0 miWest (270°)5.8 mphOvercast
4:55 AM42.8 °F35.6 °F76 %30.04 in10.0 miNW (320°)3.5 mphMostly Cloudy
5:15 AM42.8 °F35.6 °F76 %30.04 in10.0 miNNW (330°)5.8 mphOvercast
5:35 AM42.8 °F35.6 °F76 %30.04 in10.0 miNNW (330°)5.8 mphOvercast
5:55 AM42.8 °F35.6 °F76 %30.05 in10.0 miNW (320°)6.9 mphOvercast
6:15 AM41.0 °F33.8 °F76 %30.06 in10.0 miNW (310°)5.8 mphOvercast
6:35 AM41.0 °F33.8 °F76 %30.06 in10.0 miNW (320°)4.6 mphOvercast
6:55 AM41.0 °F33.8 °F76 %30.07 in10.0 miNNW (340°)8.1 mphOvercast
7:15 AM41.0 °F33.8 °F76 %30.08 in10.0 miNW (320°)5.8 mphOvercast
7:35 AM41.0 °F33.8 °F76 %30.09 in10.0 miNW (320°)4.6 mphOvercast
7:55 AM41.0 °F33.8 °F76 %30.10 in10.0 miNW (320°)5.8 mphOvercast
8:15 AM41.0 °F33.8 °F76 %30.11 in10.0 miNNW (330°)8.1 mphOvercast
8:35 AM41.0 °F33.8 °F76 %30.12 in10.0 miNW (320°)6.9 mphOvercast
8:55 AM41.0 °F33.8 °F76 %30.12 in10.0 miNNW (330°)4.6 mphOvercast
9:15 AM41.0 °F33.8 °F76 %30.13 in10.0 miNNW (330°)5.8 mphOvercast
9:35 AM42.8 °F33.8 °F70 %30.13 in10.0 miNNW (340°)6.9 mphOvercast
9:55 AM42.8 °F33.8 °F70 %30.13 in10.0 miNorth (350°)5.8 mphOvercast
10:15 AM42.8 °F33.8 °F70 %30.13 in10.0 miNNW (330°)4.6 mphOvercast
10:35 AM44.6 °F33.8 °F66 %30.13 in10.0 miNW (310°)5.8 mphOvercast
10:55 AM44.6 °F35.6 °F71 %30.13 in10.0 miNNW (330°)6.9 mphOvercast
11:15 AM44.6 °F33.8 °F66 %30.13 in10.0 miNNW (340°)6.9 mphOvercast
11:35 AM44.6 °F33.8 °F66 %30.13 in10.0 miNW (320°)8.1 mphOvercast
11:55 AM44.6 °F33.8 °F66 %30.13 in10.0 miNorth (350°)8.1 mphOvercast
12:15 PM44.6 °F33.8 °F66 %30.13 in10.0 miNorth (350°)9.2 mphOvercast
12:35 PM44.6 °F33.8 °F66 %30.12 in10.0 miNNW (330°)6.9 mphOvercast
12:55 PM44.6 °F33.8 °F66 %30.11 in10.0 miNW (310°)8.1 mphOvercast
1:15 PM44.6 °F33.8 °F66 %30.10 in10.0 miNorth (360°)6.9 mphOvercast
1:35 PM44.6 °F33.8 °F66 %30.10 in10.0 miNW (320°)8.1 mphOvercast
1:55 PM44.6 °F33.8 °F66 %30.09 in10.0 miNW (310°)5.8 mphOvercast
2:15 PM44.6 °F33.8 °F66 %30.08 in10.0 miWest (270°)5.8 mphOvercast
2:35 PM44.6 °F33.8 °F66 %30.08 in10.0 miCalmOvercast
2:55 PM44.6 °F33.8 °F66 %30.07 in10.0 miNW (310°)4.6 mphMostly Cloudy
3:15 PM44.6 °F33.8 °F66 %30.08 in10.0 miNNW (330°)3.5 mphMostly Cloudy
3:35 PM48.2 °F33.8 °F58 %30.07 in10.0 miWest (280°)5.8 mphMostly Cloudy
3:55 PM46.4 °F33.8 °F62 %30.07 in10.0 miCalmScattered Clouds
4:15 PM48.2 °F33.8 °F58 %30.07 in10.0 miNW (320°)3.5 mphClear
4:35 PM46.4 °F33.8 °F62 %30.07 in10.0 miCalmScattered Clouds
4:55 PM46.4 °F33.8 °F62 %30.07 in10.0 miWest (260°)3.5 mphClear
5:15 PM46.4 °F33.8 °F62 %30.06 in10.0 miWest (280°)3.5 mphClear
5:35 PM46.4 °F33.8 °F62 %30.06 in10.0 miCalmClear
5:55 PM42.8 °F35.6 °F76 %30.06 in10.0 miCalmClear
6:15 PM41.0 °F35.6 °F81 %30.06 in10.0 miCalmClear
6:35 PM41.0 °F35.6 °F81 %30.06 in10.0 miCalmClear
6:55 PM37.4 °F35.6 °F93 %30.07 in10.0 miCalmClear
7:15 PM37.4 °F35.6 °F93 %30.07 in10.0 miCalmClear
7:35 PM37.4 °F35.6 °F93 %30.07 in10.0 miCalmClear
7:55 PM35.6 °F33.8 °F93 %30.07 in10.0 miCalmClear
8:15 PM35.6 °F33.8 °F93 %30.07 in10.0 miCalmClear
8:35 PM35.6 °F33.8 °F93 %30.08 in10.0 miCalmClear
8:55 PM35.6 °F33.8 °F93 %30.08 in10.0 miCalmClear
9:15 PM35.6 °F33.8 °F93 %30.08 in10.0 miCalmClear
9:35 PM33.8 °F32.0 °F93 %30.09 in10.0 miCalmClear
9:55 PM33.8 °F32.0 °F93 %30.09 in10.0 miCalmClear
10:15 PM33.8 °F32.0 °F93 %30.09 in10.0 miCalmClear
10:35 PM33.8 °F32.0 °F93 %30.09 in10.0 miCalmClear
10:55 PM33.8 °F32.0 °F93 %30.09 in10.0 miCalmClear
11:15 PM33.8 °F32.0 °F93 %30.09 in10.0 miCalmClear
11:35 PM32.0 °F32.0 °F100 %30.09 in10.0 miCalmClear
11:55 PM32.0 °F32.0 °F100 %30.09 in10.0 miCalmClear
Hourly data recorded from KRFI, located miles away from Henderson, Texas







STORIES FROM OUR PARTNERS